TimeCDT,TemperatureF,Dew PointF,Humidity,Sea Level PressureIn,VisibilityMPH,Wind Direction,Wind SpeedMPH,Gust SpeedMPH,PrecipitationIn,Events,Conditions,WindDirDegrees,DateUTC
12:53 AM,46.0,35.1,66,29.84,10.0,North,24.2,28.8,N/A,,Scattered Clouds,350,2014-04-13 05:53:00
1:53 AM,43.0,33.1,68,29.88,10.0,North,23.0,-,N/A,,Partly Cloudy,360,2014-04-13 06:53:00
2:53 AM,43.0,30.9,62,29.93,10.0,North,21.9,28.8,N/A,,Overcast,10,2014-04-13 07:53:00
3:42 AM,42.1,32.0,67,29.94,10.0,North,17.3,-,N/A,,Overcast,10,2014-04-13 08:42:00
3:53 AM,42.1,32.0,67,29.93,10.0,North,18.4,24.2,N/A,,Overcast,360,2014-04-13 08:53:00
4:53 AM,37.9,30.0,73,29.96,10.0,North,24.2,-,N/A,,Overcast,350,2014-04-13 09:53:00
5:53 AM,36.0,28.9,76,29.98,5.0,North,23.0,33.4,0.00,Snow,Light Snow,350,2014-04-13 10:53:00
6:38 AM,36.0,28.9,76,29.98,10.0,North,21.9,29.9,0.00,,Overcast,360,2014-04-13 11:38:00
6:53 AM,35.1,28.9,78,30.00,10.0,North,23.0,32.2,0.00,,Overcast,360,2014-04-13 11:53:00
7:27 AM,34.0,30.0,85,30.00,2.0,North,25.3,32.2,0.00,Snow,Light Snow,360,2014-04-13 12:27:00
7:34 AM,34.0,30.0,85,30.00,0.8,North,26.5,32.2,0.00,Snow,Light Snow,350,2014-04-13 12:34:00
7:45 AM,34.0,30.9,89,29.99,0.8,North,23.0,33.4,0.00,Snow,Light Snow,350,2014-04-13 12:45:00
7:53 AM,34.0,30.9,89,30.01,1.0,North,23.0,-,0.00,Snow,Light Snow,360,2014-04-13 12:53:00
8:33 AM,33.1,30.9,92,29.99,0.8,North,27.6,32.2,0.00,Snow,Light Snow,360,2014-04-13 13:33:00
8:44 AM,33.1,30.0,89,29.99,1.2,North,27.6,38.0,0.00,Snow,Light Snow,360,2014-04-13 13:44:00
8:50 AM,33.8,28.4,81,29.99,2.5,North,27.6,-,0.00,Snow,Light Snow,360,2014-04-13 13:50:00
8:53 AM,33.1,28.9,85,30.02,2.5,North,29.9,-,0.00,Snow,Light Snow,360,2014-04-13 13:53:00
9:00 AM,33.1,30.0,89,29.99,3.0,North,25.3,34.5,0.00,Snow,Light Snow,360,2014-04-13 14:00:00
9:31 AM,33.1,28.0,82,30.00,10.0,North,28.8,35.7,0.00,Rain,Light Rain,360,2014-04-13 14:31:00
9:53 AM,32.0,27.0,82,30.04,10.0,North,26.5,36.8,0.00,,Overcast,360,2014-04-13 14:53:00
10:53 AM,32.0,25.0,75,30.07,10.0,North,27.6,35.7,0.00,,Overcast,360,2014-04-13 15:53:00
11:53 AM,32.0,23.0,69,30.08,10.0,NNW,27.6,39.1,0.00,,Overcast,340,2014-04-13 16:53:00
12:19 PM,34.0,21.9,61,30.05,10.0,North,28.8,39.1,0.00,Rain,Light Rain,350,2014-04-13 17:19:00
12:53 PM,36.0,23.0,59,30.08,10.0,North,29.9,42.6,0.00,Rain,Light Rain,350,2014-04-13 17:53:00
1:53 PM,36.0,19.9,52,30.07,10.0,North,28.8,39.1,0.00,Rain,Light Rain,350,2014-04-13 18:53:00
2:53 PM,39.0,18.0,43,30.08,10.0,North,28.8,38.0,0.00,,Partly Cloudy,350,2014-04-13 19:53:00
3:53 PM,39.0,16.0,39,30.09,10.0,North,32.2,38.0,N/A,,Mostly Cloudy,350,2014-04-13 20:53:00
4:53 PM,42.1,16.0,35,30.09,10.0,North,29.9,38.0,N/A,,Scattered Clouds,360,2014-04-13 21:53:00
5:53 PM,41.0,16.0,36,30.09,10.0,North,32.2,38.0,N/A,,Partly Cloudy,360,2014-04-13 22:53:00
7:53 PM,37.9,14.0,38,30.14,10.0,North,25.3,34.5,N/A,,Overcast,360,2014-04-14 00:53:00
8:53 PM,36.0,14.0,41,30.18,10.0,North,20.7,29.9,N/A,,Clear,360,2014-04-14 01:53:00
9:53 PM,35.1,14.0,42,30.23,10.0,North,25.3,33.4,N/A,,Clear,350,2014-04-14 02:53:00
10:53 PM,32.0,15.1,50,30.26,10.0,NNW,19.6,-,N/A,,Scattered Clouds,340,2014-04-14 03:53:00
11:53 PM,30.0,14.0,51,30.28,10.0,North,16.1,-,N/A,,Partly Cloudy,350,2014-04-14 04:53:00